Regional Weather Roundup
Issued by NWS

Home | Current Version | Previous Version | Text Only | Print | Product List | Glossary Off
Versions: 1 2 3 4 5 6 7 8 9 10 11 12 13 14 15 16 17 18 19 20 21 22 23 24 25 26 27 28 29 30 31 32 33 34 35 36 37 38 39 40 41 42 43 44 45 46 47 48 49 50

141
ASUS44 KJAN 180503
RWRMS

MISSISSIPPI HOURLY WEATHER ROUNDUP
NATIONAL WEATHER SERVICE JACKSON MS
1200 AM CDT THU SEP 18 2014

NOTE: "FAIR: INDICATES FEW OR NO CLOUDS BELOW 12,000 FEET WITH NO
SIGNIFICANT WEATHER AND/OR OBSTRUCTIONS TO VISIBILITY.

MSZ001>002-007>008-010>013-018>021-025>028-034>036-180600-
NORTHWEST MISSISSIPPI

CITY           SKY/WX    TMP DP  RH WIND       PRES   REMARKS
CLARKSDALE       N/A     72  72 100 CALM      29.94S
CLEVELAND      FAIR      76  71  85 SE6       29.91S
GREENWOOD      PTCLDY    72  68  87 CALM      29.92S
GREENVILLE     CLOUDY    75  68  78 E6        29.91S
GRENADA        FAIR      72  66  83 SE6       29.94S
OLIVE BRANCH   CLEAR     64  64 100 CALM      29.96F
OXFORD         FAIR      66  64  94 E5        29.97S
TUNICA         CLOUDY    68  64  88 E5        29.94F
$$

MSZ003>006-009-014>017-022>024-029>033-037>039-180600-
NORTHEAST MISSISSIPPI

CITY           SKY/WX    TMP DP  RH WIND       PRES   REMARKS
COLUMBUS AFB   CLEAR     66  64  94 CALM      29.95S
CORINTH          N/A     64  61  88 CALM      29.96S
GOLDN TRIANGLE CLEAR     68  61  77 CALM      29.96R
STARKVILLE     FAIR      66  64  94 CALM      29.96R
TUPELO         MOCLDY    69  65  86 N5        29.95S
$$

MSZ040-058-180600-
CENTRAL MISSISSIPPI

CITY           SKY/WX    TMP DP  RH WIND       PRES   REMARKS
JACKSON INTL   CLOUDY    73  70  90 NE3       29.92F
JACKSON HAWKNS CLOUDY    75  70  84 CALM      29.92F
MERIDIAN KEY   CLEAR     70  68  93 CALM      29.95S
MERIDIAN NAS   MOCLDY    71  66  84 NE5       29.96R
RAYMOND        FAIR      73  68  83 CALM      29.92F
VICKSBURG      CLOUDY    74  71  91 CALM      29.91F
$$

MSZ059>079-180600-
SOUTH MISSISSIPPI

CITY           SKY/WX    TMP DP  RH WIND       PRES   REMARKS
BROOKHAVEN     FAIR      73  72  94 CALM      29.95S
COLUMBIA       FAIR      72  70  94 CALM      29.91F
HATTIESBURG    PTCLDY    75  73  93 CALM      29.93F FOG
MCCOMB         CLOUDY    74  72  93 CALM      29.93F
NATCHEZ        PTCLDY    73  72  94 CALM      29.93S
PINE BELT      PTCLDY   N/A N/A N/A CALM      29.94S
$$

MSZ080>082-180600-
COASTAL MISSISSIPPI

CITY           SKY/WX    TMP DP  RH WIND       PRES   REMARKS
BILOXI         CLEAR     78  73  84 CALM      29.91F
PASCAGOULA     PTCLDY    73  72  96 CALM      29.92F
GULFPORT       CLEAR     76  72  87 CALM      29.91F
$$



USA.gov is the U.S. government's official web portal to all federal, state and local government web resources and services.